[[{"header":{"parameterUnit":"m.s-1","parameterCategory":1,"la1":30.2991,"la2":30.254,"lo1":-89.0895,"lo2":-89.0444,"dy":0.0017,"dx":0.0017,"nx":28,"ny":28,"refTime":"2025-11-10T09:00:00:Z","depth":0,"parameterNumber":2,"parameterNumberName":"U-component_of_WINDS"},"data":[0,0,0,0,0,0,0,0,0,0,0,0,0,0,0,0,0,0,0,0,0,0,0,0,0,0,0,0,0,0,0,0,0,0,0,0,0,0,0,0,0,0,0,0,0,0,0,0,0,0,0,0,0,0,0,0,0,0,1.9203,1.9204,0,1.923,1.9231,1.9231,1.9223,1.9223,1.9222,1.9221,1.9248,1.9249,1.925,0,0,0,0,0,0,0,0,0,0,0,0,0,1.9144,1.9145,1.9203,1.9204,1.9204,1.923,1.9231,1.9231,1.9223,1.9223,1.9222,1.9221,1.9247,1.9249,1.925,0,0,0,0,0,0,0,0,0,0,0,0,0,1.917,1.9146,1.9203,1.9203,1.9204,1.923,1.9231,1.9231,1.9223,1.9222,1.9222,1.9221,1.9247,1.9248,1.925,1.9278,0,0,1.9256,1.9257,0,0,0,0,0,0,0,0,1.9169,1.9173,1.9203,1.9203,1.9204,1.9223,1.922,1.9247,1.9224,1.9216,1.9221,1.922,1.924,1.9242,1.9249,1.9279,1.9281,1.9256,1.9257,1.9258,1.9258,0,0,0,0,0,0,0,1.9167,1.9171,1.9214,1.9203,1.9204,1.9202,1.9205,1.9225,1.9232,1.9216,1.9216,1.9219,1.924,1.9247,1.925,1.9281,1.9256,1.9258,1.9259,1.9259,1.9337,1.9338,0,0,0,0,0,0,1.9165,1.917,1.9213,1.9215,1.9184,1.9204,1.9207,1.9217,1.9232,1.9233,1.922,1.9219,1.9245,1.9247,1.925,1.9285,1.9258,1.926,1.9261,1.9336,1.9337,1.9338,0,0,0,0,0,0,1.9164,1.9169,1.9212,1.9192,1.9198,1.9205,1.9217,1.9218,1.9226,1.9235,1.9236,1.9226,1.9244,1.9248,1.9272,1.9285,1.926,1.9262,1.9335,1.9336,1.9338,1.9353,0,0,0,0,0,0,1.9162,1.9169,1.9179,1.9193,1.9199,1.9233,1.9218,1.9219,1.9229,1.9228,1.9241,1.9242,1.9244,1.9269,1.9274,1.9287,1.9263,1.9334,1.9336,1.9337,1.9351,1.9355,1.9358,0,0,0,0,0,1.916,1.9182,1.918,1.9185,1.9212,1.9234,1.9237,1.9239,1.923,1.9241,1.9247,1.9242,1.9284,1.9272,1.9277,1.9291,1.9333,1.9335,1.9337,1.935,1.9354,1.9357,0,0,0,0,0,0,1.9168,1.9183,1.9181,1.9208,1.922,1.9232,1.9246,1.9243,1.9257,1.9255,1.9257,1.926,1.9284,1.929,1.9277,1.932,1.9307,1.931,1.9315,1.9319,1.9322,1.9319,1.9265,0,0,0,0,0,1.9174,1.919,1.9202,1.9225,1.9231,1.9237,1.9247,1.9248,1.926,1.9264,1.9272,1.9283,1.9299,1.931,1.9325,1.9353,1.9355,1.9365,1.9368,1.9371,1.9373,1.9389,1.9394,1.9345,1.9345,1.9345,0,0,1.9184,1.9194,1.9204,1.9227,1.9236,1.9253,1.9241,1.926,1.9272,1.9267,1.929,1.9296,1.9309,1.9336,1.9348,1.9341,1.9388,1.9374,1.9376,1.9377,1.9392,1.9397,1.9401,1.9347,1.9347,1.9346,0,0,1.9211,1.9221,1.9241,1.9251,1.9266,1.927,1.9275,1.9289,1.9293,1.9317,1.9313,1.9329,1.9356,1.9365,1.9374,1.9408,1.9403,1.9413,1.9429,1.9445,1.9448,1.9452,1.9464,1.9468,1.9415,1.9415,1.9415,0,1.9222,1.9248,1.9251,1.927,1.928,1.9278,1.9298,1.9308,1.9326,1.9333,1.9326,1.9362,1.937,1.9399,1.9407,1.9415,1.942,1.941,1.9448,1.9451,1.9454,1.9466,1.947,1.9416,1.9416,1.9416,1.9416,0,1.926,1.9278,1.9293,1.9312,1.9324,1.9343,1.935,1.9362,1.9362,1.9368,1.9393,1.9403,1.9421,1.9428,1.9428,1.9458,1.9453,1.9447,1.9434,1.946,1.9471,1.9475,1.9418,1.9417,1.9417,1.9417,0,0,1.9291,1.9314,1.9319,1.9328,1.9345,1.9359,1.938,1.9398,1.9408,1.9422,1.9438,1.9463,1.9458,1.9468,1.9469,1.9483,1.951,1.9475,1.9476,1.9481,1.9543,1.9547,1.9552,1.9508,1.9508,1.9509,1.9542,0,1.9319,1.9355,1.936,1.9391,1.9408,1.9408,1.9425,1.9438,1.9444,1.946,1.9467,1.9484,1.9476,1.9482,1.9496,1.9503,1.9522,1.9501,1.9523,1.9523,1.9518,1.9557,1.9561,1.9591,1.9546,1.9547,1.9547,0,1.9356,1.9372,1.9406,1.9422,1.943,1.9446,1.9463,1.9479,1.9493,1.9497,1.9509,1.951,1.9531,1.9518,1.9548,1.9534,1.9543,1.9548,1.955,1.9551,1.9536,1.9559,1.9601,1.9605,1.9554,1.9553,1.9553,0,1.9375,1.9405,1.943,1.9438,1.9457,1.9469,1.9477,1.9491,1.9503,1.9518,1.9526,1.9544,1.9553,1.9567,1.9573,1.9563,1.9602,1.959,1.9605,1.9605,1.9612,1.9611,1.9655,1.962,1.962,1.962,1.962,0,1.9406,1.9426,1.9438,1.9453,1.9476,1.9483,1.9505,1.9514,1.9527,1.9543,1.9544,1.9559,1.9566,1.9582,1.9587,1.9611,1.9615,1.9619,1.9619,1.9618,1.9618,1.9623,1.9621,1.9621,1.9621,1.962,1.962,0,1.943,1.9439,1.9465,1.9483,1.9488,1.9504,1.9519,1.9533,1.9541,1.9562,1.9567,1.9578,1.9598,1.9605,1.9629,1.9632,1.966,1.9659,1.9655,1.9655,1.967,1.9668,1.9718,1.9725,1.9686,1.9686,1.9687,0,1.9448,1.9464,1.9484,1.9495,1.9505,1.9523,1.9535,1.9543,1.9555,1.9574,1.9587,1.9607,1.9623,1.9655,1.9665,1.9683,1.9683,1.9699,1.9685,1.9684,1.9683,1.9681,1.9683,1.9701,1.9702,1.9702,1.9702,0,1.9479,1.9484,1.9501,1.9521,1.9536,1.9551,1.9566,1.9576,1.9585,1.96,1.962,1.9633,1.9659,1.9679,1.9698,1.9707,1.9706,1.9707,1.9711,1.9709,1.9706,1.9708,1.9661,1.9705,1.9705,1.9705,1.9704,1.9704,1.95,1.9515,1.9532,1.9552,1.9564,1.9579,1.9594,1.9604,1.9622,1.9644,1.9647,1.967,1.9686,1.9712,1.9722,1.974,1.9735,1.9742,1.9743,1.9745,1.9746,1.9705,1.9743,1.9743,1.9743,1.9743,1.9743,0,1.9531,1.9543,1.9561,1.9583,1.9599,1.9599,1.9616,1.963,1.965,1.9665,1.9682,1.9706,1.9726,1.9739,1.9759,1.9771,1.9771,1.9776,1.9775,1.9777,1.9748,1.9742,1.9776,1.9776,1.9776,1.9776,1.9776,1.9776,1.9549,1.9574,1.9581,1.9612,1.9624,1.9646,1.9656,1.967,1.9683,1.971,1.9728,1.9736,1.9751,1.9773,1.9791,1.9794,1.9801,1.9806,1.9809,1.9782,1.9779,1.9775,1.977,1.9808,1.9808,1.9836,1.9836,1.9837]},{"header":{"parameterUnit":"m.s-1","parameterCategory":1,"la1":30.2991,"la2":30.254,"lo1":-89.0895,"lo2":-89.0444,"dy":0.0017,"dx":0.0017,"nx":28,"ny":28,"refTime":"2025-11-10T09:00:00:Z","depth":0,"parameterNumber":3,"parameterNumberName":"V-component_of_WINDS"},"data":[0,0,0,0,0,0,0,0,0,0,0,0,0,0,0,0,0,0,0,0,0,0,0,0,0,0,0,0,0,0,0,0,0,0,0,0,0,0,0,0,0,0,0,0,0,0,0,0,0,0,0,0,0,0,0,0,0,0,-8.8912,-8.8914,0,-8.9105,-8.9107,-8.9109,-8.9011,-8.9006,-8.9001,-8.8996,-8.9188,-8.9197,-8.9207,0,0,0,0,0,0,0,0,0,0,0,0,0,-8.8452,-8.8461,-8.8911,-8.8914,-8.8916,-8.9105,-8.9107,-8.911,-8.9012,-8.9006,-8.9,-8.8994,-8.9184,-8.9196,-8.9208,0,0,0,0,0,0,0,0,0,0,0,0,0,-8.8649,-8.8464,-8.8911,-8.889,-8.889,-8.9104,-8.9107,-8.9111,-8.9013,-8.9006,-8.8998,-8.8991,-8.9181,-8.9195,-8.9209,-8.9453,0,0,-8.9254,-8.9261,0,0,0,0,0,0,0,0,-8.8638,-8.8666,-8.8891,-8.8892,-8.8893,-8.9026,-8.9015,-8.9225,-8.9015,-8.8967,-8.8996,-8.8987,-8.914,-8.9157,-8.921,-8.9461,-8.947,-8.9256,-8.9265,-8.9271,-8.9275,0,0,0,0,0,0,0,-8.8624,-8.8657,-8.8988,-8.8894,-8.8895,-8.887,-8.8889,-8.9055,-8.9093,-8.897,-8.8964,-8.8988,-8.9139,-8.9196,-8.9214,-8.9472,-8.9255,-8.9268,-8.9277,-8.9283,-8.9933,-8.9942,0,0,0,0,0,0,-8.8612,-8.8646,-8.8982,-8.8994,-8.8744,-8.8884,-8.8906,-8.8991,-8.9091,-8.9099,-8.8994,-8.8983,-8.9175,-8.9197,-8.922,-8.9512,-8.9271,-8.9285,-8.9293,-8.9925,-8.9935,-8.9944,0,0,0,0,0,0,-8.8603,-8.8643,-8.8974,-8.8818,-8.8858,-8.89,-8.8996,-8.8999,-8.9056,-8.911,-8.9115,-8.9047,-8.917,-8.9199,-8.9396,-8.9517,-8.9291,-8.9305,-8.9915,-8.9928,-8.994,-9.0098,0,0,0,0,0,0,-8.859,-8.8641,-8.8735,-8.8821,-8.8867,-8.9149,-8.9004,-8.9008,-8.9083,-8.9069,-8.916,-8.9168,-8.9166,-8.9375,-8.9411,-8.9534,-8.9316,-8.9904,-8.9921,-8.9936,-9.0082,-9.0115,-9.0142,0,0,0,0,0,-8.8574,-8.877,-8.874,-8.8781,-8.8986,-8.9156,-8.9182,-8.9178,-8.9093,-8.9187,-8.9221,-8.9165,-8.9498,-8.9396,-8.9435,-8.9565,-8.9897,-8.9916,-8.9935,-9.0069,-9.0108,-9.0142,0,0,0,0,0,0,-8.8694,-8.8781,-8.8749,-8.8979,-8.9061,-8.9139,-8.9258,-8.922,-8.9326,-8.9309,-8.9298,-8.9319,-8.9524,-8.9563,-8.9447,-8.9805,-8.9684,-8.9712,-8.9772,-8.981,-8.984,-8.9826,-8.9328,0,0,0,0,0,-8.8748,-8.888,-8.8948,-8.9144,-8.9188,-8.9216,-8.929,-8.928,-8.9364,-8.9398,-8.9446,-8.9528,-8.9651,-8.9733,-8.9849,-9.0087,-9.0105,-9.0195,-9.0225,-9.025,-9.0274,-9.0404,-9.0445,-9.0007,-9.0007,-9.0006,0,0,-8.8859,-8.8923,-8.9007,-8.917,-8.9233,-8.9369,-8.9246,-8.9395,-8.9496,-8.9419,-8.9609,-8.9648,-8.9738,-8.9958,-9.0056,-8.9997,-9.0399,-9.0274,-9.0293,-9.0304,-9.0427,-9.0469,-9.0506,-9.002,-9.0017,-9.0015,0,0,-8.9131,-8.9193,-8.9364,-8.943,-8.9528,-8.9546,-8.9587,-8.9672,-8.9695,-8.9886,-8.9832,-8.995,-9.0163,-9.023,-9.0292,-9.0592,-9.0544,-9.0629,-9.0786,-9.0913,-9.0947,-9.0978,-9.1085,-9.1124,-9.0653,-9.0654,-9.0654,0,-8.9257,-8.9462,-8.9456,-8.9611,-8.9684,-8.9624,-8.9796,-8.986,-8.999,-9.0041,-8.9973,-9.024,-9.0296,-9.053,-9.0604,-9.0656,-9.0701,-9.0619,-9.0943,-9.0974,-9.1002,-9.1105,-9.1145,-9.0664,-9.0663,-9.0662,-9.0661,0,-8.9612,-8.9755,-8.9881,-9.0011,-9.0098,-9.0261,-9.0278,-9.0367,-9.0349,-9.0374,-9.0569,-9.0635,-9.0764,-9.0819,-9.0802,-9.1051,-9.1012,-9.0944,-9.0822,-9.1054,-9.115,-9.1189,-9.0678,-9.0674,-9.0671,-9.0669,0,0,-8.9965,-9.0091,-9.0138,-9.0197,-9.03,-9.041,-9.0569,-9.0698,-9.0775,-9.0866,-9.0999,-9.1181,-9.112,-9.119,-9.118,-9.1291,-9.1525,-9.121,-9.1212,-9.1267,-9.1804,-9.1855,-9.1901,-9.1494,-9.1501,-9.1507,-9.1797,0,-9.0246,-9.0528,-9.0528,-9.0787,-9.0919,-9.0864,-9.1003,-9.1081,-9.1108,-9.1223,-9.1251,-9.1381,-9.129,-9.1333,-9.144,-9.1474,-9.1633,-9.1453,-9.1616,-9.1622,-9.1597,-9.1951,-9.2005,-9.2276,-9.1835,-9.1841,-9.1845,0,-9.0611,-9.0718,-9.0992,-9.1077,-9.1133,-9.1258,-9.1376,-9.1487,-9.1573,-9.1585,-9.1666,-9.1639,-9.1799,-9.1673,-9.1893,-9.1771,-9.1838,-9.1865,-9.1875,-9.189,-9.1749,-9.1977,-9.2362,-9.2403,-9.1904,-9.19,-9.1895,0,-9.0843,-9.1054,-9.1246,-9.1297,-9.1402,-9.1491,-9.1538,-9.1618,-9.1696,-9.1798,-9.1849,-9.1968,-9.2033,-9.2125,-9.2131,-9.2038,-9.2354,-9.2227,-9.2368,-9.2368,-9.2437,-9.2433,-9.2839,-9.2479,-9.2478,-9.2478,-9.2477,0,-9.1157,-9.1327,-9.1352,-9.147,-9.1658,-9.1655,-9.1841,-9.1879,-9.1951,-9.2074,-9.2032,-9.2148,-9.2148,-9.2266,-9.2271,-9.2454,-9.2483,-9.2497,-9.2496,-9.2501,-9.25,-9.2545,-9.2527,-9.2488,-9.2486,-9.2484,-9.2482,0,-9.1448,-9.1471,-9.1677,-9.176,-9.1784,-9.192,-9.1989,-9.2101,-9.2124,-9.2281,-9.2317,-9.2354,-9.2491,-9.2506,-9.2664,-9.2667,-9.2888,-9.2867,-9.286,-9.2857,-9.2997,-9.2984,-9.3447,-9.3508,-9.3107,-9.3111,-9.3114,0,-9.1647,-9.1777,-9.1875,-9.1956,-9.2009,-9.2139,-9.2219,-9.222,-9.2305,-9.2414,-9.2513,-9.2646,-9.2753,-9.2974,-9.3013,-9.3134,-9.3116,-9.327,-9.3134,-9.3135,-9.3119,-9.3112,-9.3125,-9.3296,-9.3301,-9.3304,-9.3307,0,-9.1999,-9.2005,-9.2123,-9.2246,-9.2344,-9.244,-9.253,-9.2598,-9.2611,-9.2708,-9.2849,-9.2932,-9.3095,-9.3228,-9.3347,-9.3393,-9.3353,-9.335,-9.3389,-9.3396,-9.3387,-9.3395,-9.2933,-9.3339,-9.3336,-9.3334,-9.3332,-9.3331,-9.2251,-9.2364,-9.2452,-9.2585,-9.2653,-9.2739,-9.2849,-9.2887,-9.3005,-9.314,-9.3133,-9.3289,-9.3371,-9.3528,-9.3583,-9.3704,-9.3652,-9.3708,-9.3723,-9.3737,-9.3752,-9.3368,-9.3725,-9.3724,-9.3723,-9.3723,-9.3722,0,-9.2601,-9.2655,-9.2778,-9.2907,-9.3012,-9.2967,-9.3065,-9.3155,-9.3293,-9.3375,-9.3482,-9.3644,-9.3773,-9.3823,-9.3949,-9.4035,-9.402,-9.4068,-9.4062,-9.4074,-9.379,-9.3745,-9.4079,-9.4079,-9.4079,-9.4078,-9.4078,-9.4078,-9.2796,-9.2986,-9.3002,-9.3225,-9.3277,-9.3431,-9.3491,-9.357,-9.3635,-9.3819,-9.3927,-9.396,-9.4029,-9.4159,-9.4275,-9.4286,-9.4335,-9.4392,-9.4395,-9.4129,-9.4093,-9.4059,-9.4016,-9.4402,-9.4402,-9.4668,-9.4671,-9.4673]}]]